Malaga, Spain

10:07 PM CET on January 23, 2018 (GMT +0100)
Malaga

Weather History for LEMG - January, 2013

Change the Weather History Date:

Saturday, January 5, 2013

  Actual Average Record
Temperature  
Mean Temperature 56 °F -  
Max Temperature 70 °F 59 °F 73 °F (2007)
Min Temperature 41 °F 43 °F 37 °F (1999)
Degree Days  
Heating Degree Days 10    
Growing Degree Days 6 (Base 50)    
Moisture  
Dew Point 43 °F    
Average Humidity 71    
Maximum Humidity 100    
Minimum Humidity 31    
Precipitation  
Precipitation 0.00 in 0.11 in - ()
Sea Level Pressure  
Sea Level Pressure 30.50 in    
Wind  
Wind Speed 9 mph ()    
Max Wind Speed 18 mph    
Max Gust Speed -    
Visibility 7.2 miles    
Events      
Averages and records for this station are not official NWS values.
T = Trace of Precipitation, MM = Missing Value Source: Averaged Metar Reports

Daily Weather History Graph

Daily Weather History Graph

Search for Another Location

Airport or City:

Trip Planner

Search our weather history database for the weather conditions in past years. The results will help you decide how hot, cold, wet, or windy it might be!

Date:

Astronomy

Jan. 05, 2013 Rise Set
Actual Time 8:30 AM CET 6:16 PM CET
Civil Twilight 8:02 AM CET 6:44 PM CET
Nautical Twilight 7:29 AM CET 7:17 PM CET
Astronomical Twilight 6:58 AM CET 7:48 PM CET
Moon 1:27 AM CET (1/5) 12:52 PM CET (1/5)
Length of Visible Light 10h 42m
Length of Day
9h 45m
Waning Gibbous, 47% of the Moon is Illuminated
Jan 5
Waning Gibbous
Jan 11
New
Jan 19
First Quarter
Jan 27
Full
Feb 3
Last Quarter

Hourly Weather History & Observations

Time (CET) Temp. Windchill Dew Point Humidity Pressure Visibility Wind Dir Wind Speed Gust Speed Precip Events Conditions
12:00 AM 48.2 °F - 46.4 °F 93% 30.60 in 6.2 mi WNW 5.8 mph - N/A   Partly Cloudy
12:30 AM 48.2 °F - 46.4 °F 93% 30.60 in 6.2 mi WNW 8.1 mph - N/A   Partly Cloudy
1:00 AM 49 °F - 46 °F 87% 30.60 in 9 mi West 8.1 mph - -   Scattered Clouds
1:30 AM 48.2 °F - 46.4 °F 93% 30.57 in 6.2 mi WNW 8.1 mph - N/A   Partly Cloudy
2:00 AM 48.2 °F - 46.4 °F 93% 30.57 in 6.2 mi West 5.8 mph - N/A   Partly Cloudy
2:30 AM 46.4 °F 41.9 °F 44.6 °F 93% 30.57 in 6.2 mi WNW 9.2 mph - N/A   Partly Cloudy
3:00 AM 46.4 °F 42.4 °F 44.6 °F 93% 30.57 in 6.2 mi WNW 8.1 mph - N/A   Partly Cloudy
3:30 AM 46.4 °F 41.9 °F 44.6 °F 93% 30.57 in 6.2 mi West 9.2 mph - N/A   Partly Cloudy
4:00 AM 46.4 °F 42.4 °F 44.6 °F 93% 30.57 in 6.2 mi WNW 8.1 mph - N/A   Partly Cloudy
4:30 AM 44.6 °F 39.7 °F 42.8 °F 93% 30.57 in 6.2 mi West 9.2 mph - N/A   Partly Cloudy
5:00 AM 44.6 °F 39.7 °F 42.8 °F 93% 30.57 in 6.2 mi WNW 9.2 mph - N/A   Partly Cloudy
5:30 AM 42.8 °F 38.0 °F 42.8 °F 100% 30.54 in 6.2 mi WNW 8.1 mph - N/A   Partly Cloudy
6:00 AM 44.6 °F 38.8 °F 42.8 °F 93% 30.54 in 6.2 mi WNW 11.5 mph - N/A   Partly Cloudy
6:30 AM 42.8 °F 38.0 °F 41.0 °F 93% 30.54 in 6.2 mi WNW 8.1 mph - N/A   Partly Cloudy
7:00 AM 42 °F - 41 °F 96% 30.56 in 9 mi WNW 9.2 mph - -   Scattered Clouds
7:00 AM 41.0 °F 35.2 °F 41.0 °F 100% 30.54 in 6.2 mi WNW 9.2 mph - N/A   Partly Cloudy
8:00 AM 41.0 °F 34.7 °F 41.0 °F 100% 30.54 in 6.2 mi WNW 10.4 mph - N/A   Partly Cloudy
8:30 AM 41.0 °F 35.2 °F 41.0 °F 100% 30.54 in 6.2 mi WNW 9.2 mph - N/A   Partly Cloudy
9:00 AM 41.0 °F 34.7 °F 41.0 °F 100% 30.54 in - WNW 10.4 mph - N/A   Clear
9:30 AM 42.8 °F 36.6 °F 42.8 °F 100% 30.54 in - WNW 11.5 mph - N/A   Clear
10:00 AM 46.4 °F 41.9 °F 44.6 °F 93% 30.57 in - WNW 9.2 mph - N/A   Clear
10:30 AM 48.2 °F - 46.4 °F 93% 30.57 in - WNW 9.2 mph - N/A   Clear
11:00 AM 51.8 °F - 48.2 °F 88% 30.57 in - NW 5.8 mph - N/A   Clear
11:30 AM 53.6 °F - 48.2 °F 82% 30.54 in - WNW 5.8 mph - N/A   Clear
12:00 PM 57.2 °F - 50.0 °F 77% 30.54 in - WNW 4.6 mph - N/A   Clear
12:30 PM 60.8 °F - 50.0 °F 68% 30.51 in - NW 5.8 mph - N/A   Clear
1:00 PM 65 °F - 42 °F 31% 30.54 in 22 mi WNW 9.2 mph - -  
1:00 PM 64.4 °F - 39.2 °F 40% 30.51 in - WNW 9.2 mph - N/A   Clear
1:30 PM 66.2 °F - 42.8 °F 43% 30.48 in - West 11.5 mph - N/A   Clear
2:00 PM 66.2 °F - 42.8 °F 43% 30.45 in - West 13.8 mph - N/A   Clear
2:30 PM 66.2 °F - 41.0 °F 40% 30.45 in - West 12.7 mph - N/A   Clear
3:00 PM 68.0 °F - 41.0 °F 37% 30.45 in - WNW 12.7 mph - N/A   Clear
3:30 PM 68.0 °F - 41.0 °F 37% 30.42 in - WNW 12.7 mph - N/A   Clear
4:00 PM 68.0 °F - 41.0 °F 37% 30.42 in - West 13.8 mph - N/A   Clear
4:30 PM 66.2 °F - 42.8 °F 43% 30.42 in - West 12.7 mph - N/A   Clear
5:00 PM 66.2 °F - 42.8 °F 43% 30.42 in - WNW 11.5 mph - N/A   Clear
6:30 PM 62.6 °F - 39.2 °F 42% 30.42 in - West 13.8 mph - N/A   Clear
7:00 PM 62 °F - 41 °F 34% 30.43 in 19 mi West 13.8 mph - -  
7:00 PM 62.6 °F - 41.0 °F 45% 30.42 in - West 13.8 mph - N/A   Clear
7:30 PM 60.8 °F - 41.0 °F 48% 30.42 in - West 13.8 mph - N/A   Clear
8:00 PM 60.8 °F - 41.0 °F 48% 30.42 in - West 12.7 mph - N/A   Clear
9:00 PM 59.0 °F - 42.8 °F 55% 30.42 in - West 15.0 mph - N/A   Clear
9:30 PM 59.0 °F - 42.8 °F 55% 30.42 in - West 17.3 mph - N/A   Clear
10:00 PM 59.0 °F - 42.8 °F 55% 30.42 in - West 18.4 mph - N/A   Clear
10:30 PM 59.0 °F - 42.8 °F 55% 30.42 in - West 17.3 mph - N/A   Clear
11:00 PM 59.0 °F - 42.8 °F 55% 30.42 in - West 18.4 mph - N/A   Clear
11:30 PM 59.0 °F - 41.0 °F 51% 30.42 in - West 18.4 mph - N/A   Clear